| time (UTC) | temp C | wind direction | speed KPH | gust KPH | rain 1hr cm | rain 24hr cm | rain mn cm | humidity % | barometer mb |
| 20260510045104 | 17 | 51 | 12.9 | 29.0 | 0.25 | 0.41 | 0.41 | 89 | 1010.0 |
| 20260510044603 | 17 | 12 | 12.9 | 25.7 | 0.28 | 0.41 | 0.41 | 89 | 1011.7 |
| 20260510044103 | 17 | 123 | 16.1 | 22.5 | 0.30 | 0.38 | 0.38 | 89 | 1009.5 |
| 20260510043603 | 18 | 95 | 8.0 | 19.3 | 0.36 | 0.38 | 0.38 | 87 | 1010.9 |
| 20260510043104 | 18 | 58 | 9.7 | 19.3 | 0.36 | 0.38 | 0.38 | 86 | 1011.4 |
| 20260510042604 | 18 | 60 | 4.8 | 19.3 | 0.33 | 0.36 | 0.36 | 86 | 1012.0 |
| 20260510042103 | 18 | 2 | 9.7 | 20.9 | 0.33 | 0.36 | 0.36 | 85 | 1012.2 |
| 20260510041603 | 18 | 13 | 9.7 | 20.9 | 0.30 | 0.33 | 0.33 | 84 | 1012.0 |
| 20260510041103 | 18 | 6 | 8.0 | 25.7 | 0.28 | 0.30 | 0.30 | 82 | 1012.2 |
| 20260510040603 | 19 | 22 | 9.7 | 27.4 | 0.25 | 0.28 | 0.28 | 80 | 1012.5 |
| 20260510040104 | 20 | 322 | 14.5 | 29.0 | 0.18 | 0.20 | 0.20 | 77 | 1013.4 |
| 20260510035604 | 20 | 327 | 9.7 | 29.0 | 0.13 | 0.15 | 0.15 | 74 | 1012.9 |
| 20260510035103 | 21 | 309 | 12.9 | 29.0 | 0.13 | 0.15 | 0.15 | 73 | 1012.5 |
| 20260510034604 | 22 | 303 | 14.5 | 27.4 | 0.10 | 0.13 | 0.13 | 71 | 1012.5 |
| 20260510033605 | 24 | 334 | 4.8 | 19.3 | 0.00 | 0.03 | 0.03 | 61 | 1010.4 |
| 20260510033105 | 25 | 48 | 4.8 | 20.9 | 0.00 | 0.03 | 0.03 | 60 | 1008.8 |
| 20260510032105 | 25 | 84 | 9.7 | 27.4 | 0.00 | 0.03 | 0.03 | 56 | 1007.3 |
| 20260510031605 | 25 | 119 | 9.7 | 27.4 | 0.00 | 0.03 | 0.03 | 55 | 1007.1 |
| 20260510031105 | 25 | 103 | 19.3 | 27.4 | 0.00 | 0.03 | 0.03 | 54 | 1006.9 |
| 20260510030606 | 25 | 109 | 16.1 | 32.2 | 0.00 | 0.03 | 0.03 | 54 | 1006.9 |
| 20260510030105 | 25 | 143 | 16.1 | 32.2 | 0.00 | 0.03 | 0.03 | 55 | 1007.2 |
| 20260510025105 | 25 | 115 | 16.1 | 24.1 | 0.00 | 0.03 | 0.03 | 54 | 1007.0 |
| 20260510024605 | 25 | 119 | 16.1 | 24.1 | 0.00 | 0.03 | 0.03 | 54 | 1007.1 |
| 20260510024106 | 25 | 120 | 16.1 | 20.9 | 0.00 | 0.03 | 0.03 | 54 | 1007.2 |
| 20260510023606 | 25 | 153 | 8.0 | 19.3 | 0.00 | 0.03 | 0.03 | 53 | 1007.4 |
| 20260510023106 | 26 | 141 | 8.0 | 24.1 | 0.00 | 0.03 | 0.03 | 53 | 1007.4 |
| 20260510021605 | 26 | 128 | 11.3 | 20.9 | 0.00 | 0.03 | 0.03 | 51 | 1007.3 |
| 20260510021105 | 26 | 133 | 12.9 | 24.1 | 0.00 | 0.03 | 0.03 | 51 | 1007.3 |
| 20260510020605 | 26 | 143 | 16.1 | 24.1 | 0.00 | 0.03 | 0.03 | 50 | 1007.0 |
| 20260510020105 | 26 | 128 | 14.5 | 24.1 | 0.00 | 0.03 | 0.03 | 51 | 1006.6 |
| 20260510015605 | 26 | 142 | 14.5 | 24.1 | 0.00 | 0.03 | 0.03 | 51 | 1006.5 |
| 20260510015105 | 26 | 151 | 14.5 | 25.7 | 0.00 | 0.03 | 0.03 | 50 | 1006.1 |
| 20260510013605 | 26 | 146 | 14.5 | 22.5 | 0.00 | 0.03 | 0.03 | 49 | 1006.0 |
| 20260510013105 | 26 | 146 | 12.9 | 19.3 | 0.00 | 0.03 | 0.03 | 48 | 1006.1 |
| 20260510012605 | 26 | 133 | 11.3 | 20.9 | 0.00 | 0.03 | 0.03 | 48 | 1006.0 |
| 20260510012105 | 26 | 153 | 11.3 | 20.9 | 0.00 | 0.03 | 0.03 | 47 | 1006.2 |
| 20260510011605 | 26 | 143 | 11.3 | 20.9 | 0.00 | 0.03 | 0.03 | 47 | 1006.1 |
| 20260510011105 | 26 | 150 | 11.3 | 20.9 | 0.00 | 0.03 | 0.03 | 46 | 1006.2 |
| 20260510010105 | 26 | 140 | 11.3 | 20.9 | 0.00 | 0.03 | 0.03 | 45 | 1006.4 |
| 20260510005606 | 26 | 125 | 14.5 | 20.9 | 0.00 | 0.03 | 0.03 | 44 | 1006.3 |
| 20260510005105 | 27 | 136 | 14.5 | 20.9 | 0.00 | 0.03 | 0.03 | 45 | 1006.3 |
| 20260510004605 | 27 | 121 | 9.7 | 19.3 | 0.00 | 0.03 | 0.03 | 46 | 1006.4 |
| 20260510004105 | 27 | 152 | 14.5 | 20.9 | 0.00 | 0.03 | 0.03 | 45 | 1006.3 |
| 20260510003606 | 27 | 140 | 11.3 | 20.9 | 0.00 | 0.03 | 0.03 | 45 | 1006.6 |
| 20260510003106 | 27 | 151 | 11.3 | 20.9 | 0.00 | 0.03 | 0.03 | 45 | 1006.5 |
| 20260510002105 | 27 | 121 | 12.9 | 19.3 | 0.00 | 0.03 | 0.03 | 45 | 1006.3 |
| 20260510001605 | 27 | 138 | 14.5 | 20.9 | 0.00 | 0.03 | 0.03 | 44 | 1006.2 |
| 20260510000605 | 27 | 137 | 11.3 | 20.9 | 0.00 | 0.03 | 0.03 | 45 | 1006.4 |
| 20260510000105 | 27 | 138 | 11.3 | 22.5 | 0.00 | 0.03 | 0.03 | 44 | 1006.5 |
| 20260509235605 | 27 | 155 | 9.7 | 24.1 | 0.00 | 0.03 | 0.03 | 43 | 1006.5 |
| 20260509235105 | 27 | 120 | 14.5 | 24.1 | 0.00 | 0.03 | 0.03 | 43 | 1006.4 |
| 20260509234105 | 28 | 141 | 16.1 | 24.1 | 0.00 | 0.03 | 0.03 | 43 | 1006.5 |
| 20260509233605 | 28 | 135 | 12.9 | 24.1 | 0.00 | 0.03 | 0.03 | 42 | 1006.4 |
| 20260509232605 | 28 | 132 | 16.1 | 24.1 | 0.00 | 0.03 | 0.03 | 41 | 1006.5 |
| 20260509231605 | 28 | 117 | 11.3 | 24.1 | 0.00 | 0.03 | 0.03 | 40 | 1006.6 |
| 20260509231105 | 28 | 111 | 14.5 | 24.1 | 0.00 | 0.03 | 0.03 | 40 | 1006.6 |
| 20260509230605 | 29 | 122 | 12.9 | 22.5 | 0.00 | 0.03 | 0.03 | 40 | 1006.7 |
| 20260509230105 | 29 | 135 | 14.5 | 22.5 | 0.00 | 0.03 | 0.03 | 39 | 1006.8 |
| 20260509225605 | 29 | 128 | 9.7 | 20.9 | 0.00 | 0.03 | 0.03 | 41 | 1006.7 |
| 20260509225105 | 29 | 120 | 12.9 | 32.2 | 0.00 | 0.03 | 0.03 | 40 | 1006.7 |
| 20260509224105 | 29 | 145 | 9.7 | 22.5 | 0.00 | 0.30 | 0.03 | 40 | 1006.9 |
| 20260509223605 | 29 | 130 | 14.5 | 22.5 | 0.00 | 0.64 | 0.03 | 41 | 1007.0 |
| 20260509222605 | 30 | 172 | 11.3 | 22.5 | 0.00 | 0.64 | 0.03 | 40 | 1007.2 |
| 20260509221605 | 30 | 140 | 11.3 | 22.5 | 0.00 | 0.64 | 0.03 | 39 | 1007.3 |
| 20260509221105 | 30 | 146 | 16.1 | 22.5 | 0.00 | 0.64 | 0.03 | 40 | 1007.4 |
| 20260509220605 | 30 | 153 | 12.9 | 22.5 | 0.00 | 0.64 | 0.03 | 40 | 1007.4 |
| 20260509215605 | 30 | 181 | 11.3 | 20.9 | 0.00 | 0.64 | 0.03 | 41 | 1007.4 |
| 20260509214605 | 30 | 96 | 9.7 | 19.3 | 0.00 | 0.64 | 0.03 | 38 | 1007.3 |
| 20260509213605 | 30 | 95 | 9.7 | 22.5 | 0.00 | 0.64 | 0.03 | 37 | 1007.4 |
| 20260509213105 | 30 | 77 | 9.7 | 22.5 | 0.00 | 0.64 | 0.03 | 38 | 1007.4 |
| 20260509211605 | 30 | 81 | 8.0 | 20.9 | 0.00 | 0.64 | 0.03 | 40 | 1007.5 |
| 20260509211106 | 30 | 111 | 14.5 | 20.9 | 0.00 | 0.64 | 0.03 | 40 | 1007.7 |
| 20260509210105 | 30 | 103 | 6.4 | 19.3 | 0.00 | 0.64 | 0.03 | 41 | 1007.8 |
| 20260509205605 | 30 | 82 | 11.3 | 19.3 | 0.00 | 0.64 | 0.03 | 39 | 1007.9 |
| 20260509204605 | 30 | 102 | 3.2 | 20.9 | 0.00 | 0.64 | 0.03 | 40 | 1007.9 |
| 20260509204105 | 30 | 103 | 8.0 | 20.9 | 0.00 | 0.64 | 0.03 | 41 | 1008.0 |
| 20260509203605 | 30 | 109 | 11.3 | 20.9 | 0.00 | 0.64 | 0.03 | 40 | 1008.1 |
| 20260509202605 | 30 | 92 | 8.0 | 19.3 | 0.00 | 0.64 | 0.03 | 40 | 1008.2 |
| 20260509202105 | 30 | 101 | 3.2 | 19.3 | 0.00 | 0.64 | 0.03 | 40 | 1008.2 |
| 20260509201105 | 29 | 88 | 11.3 | 19.3 | 0.00 | 0.64 | 0.03 | 41 | 1008.3 |
| 20260509200605 | 29 | 136 | 9.7 | 19.3 | 0.00 | 0.64 | 0.03 | 40 | 1008.4 |
| 20260509200105 | 29 | 40 | 4.8 | 12.9 | 0.00 | 0.64 | 0.03 | 43 | 1008.5 |
| 20260509195605 | 28 | 214 | 8.0 | 16.1 | 0.00 | 0.64 | 0.03 | 41 | 1008.7 |
| 20260509194605 | 28 | 171 | 6.4 | 16.1 | 0.00 | 0.64 | 0.03 | 39 | 1008.8 |
| 20260509194105 | 28 | 200 | 6.4 | 24.1 | 0.00 | 0.64 | 0.03 | 39 | 1008.8 |
| 20260509193605 | 29 | 148 | 11.3 | 24.1 | 0.00 | 0.64 | 0.03 | 40 | 1008.9 |
| 20260509193105 | 28 | 206 | 8.0 | 19.3 | 0.00 | 0.64 | 0.03 | 39 | 1008.9 |
| 20260509192605 | 28 | 174 | 6.4 | 19.3 | 0.00 | 0.64 | 0.03 | 39 | 1008.9 |
| 20260509192105 | 28 | 136 | 11.3 | 20.9 | 0.00 | 0.64 | 0.03 | 43 | 1009.0 |
| 20260509191105 | 28 | 162 | 12.9 | 20.9 | 0.00 | 0.64 | 0.03 | 42 | 1009.1 |
| 20260509190605 | 28 | 3 | 3.2 | 20.9 | 0.00 | 0.64 | 0.03 | 45 | 1009.2 |
| 20260509190105 | 28 | 140 | 11.3 | 20.9 | 0.00 | 0.64 | 0.03 | 44 | 1009.2 |
| 20260509185605 | 28 | 142 | 11.3 | 19.3 | 0.00 | 0.64 | 0.03 | 44 | 1009.3 |
| 20260509185105 | 28 | 182 | 8.0 | 19.3 | 0.00 | 0.64 | 0.03 | 44 | 1009.4 |
| 20260509182606 | 28 | 145 | 3.2 | 16.1 | 0.00 | 0.64 | 0.03 | 48 | 1009.6 |
| 20260509182105 | 28 | 231 | 3.2 | 11.3 | 0.00 | 0.64 | 0.03 | 45 | 1009.6 |
| 20260509181105 | 27 | 254 | 1.6 | 11.3 | 0.00 | 0.64 | 0.03 | 43 | 1009.8 |
| 20260509180604 | 27 | 181 | 3.2 | 14.5 | 0.00 | 0.64 | 0.03 | 44 | 1009.9 |
| 20260509180105 | 27 | 87 | 8.0 | 19.3 | 0.00 | 0.64 | 0.03 | 48 | 1009.9 |
| 20260509175604 | 27 | 113 | 4.8 | 19.3 | 0.00 | 0.64 | 0.03 | 50 | 1010.1 |
| 20260509175105 | 27 | 157 | 6.4 | 14.5 | 0.00 | 0.64 | 0.03 | 55 | 1010.1 |
| 20260509174605 | 26 | 205 | 4.8 | 19.3 | 0.00 | 0.64 | 0.03 | 54 | 1010.2 |
| 20260509174105 | 26 | 149 | 11.3 | 19.3 | 0.00 | 0.64 | 0.03 | 55 | 1010.3 |
| 20260509173605 | 26 | 154 | 9.7 | 19.3 | 0.00 | 0.64 | 0.03 | 57 | 1010.4 |
| 20260509173105 | 26 | 205 | 8.0 | 19.3 | 0.00 | 0.64 | 0.03 | 59 | 1010.5 |
| 20260509171605 | 25 | 209 | 11.3 | 19.3 | 0.00 | 0.64 | 0.03 | 62 | 1010.6 |
| 20260509171105 | 25 | 214 | 8.0 | 19.3 | 0.00 | 0.64 | 0.03 | 62 | 1010.7 |
| 20260509170605 | 25 | 190 | 9.7 | 19.3 | 0.00 | 0.64 | 0.03 | 63 | 1010.8 |
| 20260509170105 | 25 | 235 | 6.4 | 19.3 | 0.00 | 0.64 | 0.03 | 61 | 1010.8 |
| 20260509165605 | 26 | 183 | 11.3 | 19.3 | 0.00 | 0.64 | 0.03 | 66 | 1010.8 |
| 20260509165105 | 26 | 163 | 6.4 | 19.3 | 0.00 | 0.64 | 0.03 | 55 | 1010.8 |
| 20260509164605 | 26 | 189 | 6.4 | 14.5 | 0.00 | 0.64 | 0.03 | 55 | 1010.9 |
| 20260509164105 | 26 | 108 | 8.0 | 14.5 | 0.00 | 0.64 | 0.03 | 51 | 1010.9 |
| 20260509163605 | 26 | 121 | 4.8 | 12.9 | 0.00 | 0.64 | 0.03 | 51 | 1010.9 |
| 20260509163105 | 26 | 101 | 4.8 | 12.9 | 0.00 | 0.64 | 0.03 | 56 | 1010.8 |
| 20260509162105 | 25 | 136 | 4.8 | 16.1 | 0.00 | 0.64 | 0.03 | 58 | 1010.9 |
| 20260509161605 | 25 | 198 | 8.0 | 16.1 | 0.00 | 0.64 | 0.03 | 60 | 1011.0 |
| 20260509161106 | 25 | 108 | 6.4 | 14.5 | 0.00 | 0.64 | 0.03 | 57 | 1011.0 |
| 20260509160105 | 25 | 116 | 8.0 | 16.1 | 0.00 | 0.64 | 0.03 | 58 | 1011.0 |
| 20260509155605 | 24 | 144 | 8.0 | 16.1 | 0.00 | 0.64 | 0.03 | 60 | 1011.0 |
| 20260509155105 | 24 | 133 | 9.7 | 16.1 | 0.00 | 0.64 | 0.03 | 63 | 1010.9 |
| 20260509154605 | 23 | 116 | 9.7 | 14.5 | 0.00 | 0.64 | 0.03 | 66 | 1010.7 |
| 20260509154105 | 23 | 125 | 11.3 | 14.5 | 0.00 | 0.64 | 0.03 | 67 | 1010.8 |
| 20260509153605 | 23 | 97 | 8.0 | 14.5 | 0.00 | 0.64 | 0.03 | 69 | 1010.7 |
| 20260509153105 | 23 | 121 | 9.7 | 16.1 | 0.00 | 0.64 | 0.03 | 69 | 1010.7 |
| 20260509152104 | 22 | 141 | 4.8 | 14.5 | 0.00 | 0.64 | 0.03 | 74 | 1010.9 |
| 20260509151105 | 22 | 142 | 8.0 | 12.9 | 0.00 | 0.64 | 0.03 | 74 | 1010.8 |
| 20260509150605 | 22 | 119 | 4.8 | 11.3 | 0.00 | 0.64 | 0.03 | 76 | 1010.8 |
| 20260509150105 | 22 | 152 | 4.8 | 9.7 | 0.00 | 0.64 | 0.03 | 78 | 1010.8 |
| 20260509145605 | 21 | 96 | 4.8 | 11.3 | 0.00 | 0.64 | 0.03 | 80 | 1010.8 |
| 20260509145104 | 21 | 82 | 4.8 | 11.3 | 0.00 | 0.64 | 0.03 | 80 | 1010.7 |
| 20260509144604 | 21 | 115 | 6.4 | 12.9 | 0.00 | 0.64 | 0.03 | 80 | 1010.6 |
| 20260509144105 | 21 | 103 | 6.4 | 12.9 | 0.00 | 0.64 | 0.03 | 83 | 1010.5 |
| 20260509143605 | 21 | 116 | 9.7 | 12.9 | 0.00 | 0.64 | 0.03 | 83 | 1010.6 |
| 20260509143104 | 21 | 98 | 4.8 | 9.7 | 0.00 | 0.64 | 0.03 | 86 | 1010.6 |
| 20260509142605 | 20 | 86 | 1.6 | 4.8 | 0.00 | 0.64 | 0.03 | 90 | 1010.7 |
| 20260509142105 | 20 | 47 | 0.0 | 0.0 | 0.00 | 0.64 | 0.03 | 91 | 1010.8 |
| 20260509141605 | 19 | 110 | 0.0 | 0.0 | 0.00 | 0.64 | 0.03 | 94 | 1010.7 |
| 20260509141105 | 18 | 153 | 0.0 | 3.2 | 0.00 | 0.64 | 0.03 | 95 | 1010.7 |
| 20260509140106 | 17 | 188 | 1.6 | 3.2 | 0.00 | 0.64 | 0.03 | 96 | 1010.8 |
| 20260509135605 | 17 | 188 | 1.6 | 3.2 | 0.00 | 0.64 | 0.03 | 97 | 1010.8 |
| 20260509134605 | 17 | 321 | 0.0 | 0.0 | 0.00 | 0.64 | 0.03 | 97 | 1010.8 |
| 20260509134105 | 17 | 321 | 0.0 | 0.0 | 0.00 | 0.64 | 0.03 | 98 | 1010.8 |
| 20260509133105 | 16 | 321 | 0.0 | 0.0 | 0.00 | 0.64 | 0.03 | 98 | 1010.6 |
| 20260509132605 | 16 | 321 | 0.0 | 0.0 | 0.00 | 0.64 | 0.03 | 98 | 1010.5 |
| 20260509132105 | 16 | 321 | 0.0 | 0.0 | 0.00 | 0.64 | 0.03 | 98 | 1010.5 |
| 20260509131604 | 16 | 321 | 0.0 | 1.6 | 0.00 | 0.64 | 0.03 | 98 | 1010.4 |
| 20260509131105 | 15 | 321 | 0.0 | 1.6 | 0.00 | 0.64 | 0.03 | 98 | 1010.3 |
| 20260509130605 | 15 | 321 | 0.0 | 1.6 | 0.00 | 0.64 | 0.03 | 98 | 1010.2 |
| 20260509130104 | 15 | 320 | 0.0 | 0.0 | 0.00 | 0.64 | 0.03 | 98 | 1010.2 |
| 20260509125104 | 14 | 320 | 0.0 | 1.6 | 0.00 | 0.64 | 0.03 | 98 | 1010.2 |
| 20260509124604 | 14 | 319 | 0.0 | 1.6 | 0.00 | 0.64 | 0.03 | 98 | 1010.2 |
| 20260509123605 | 13 | 319 | 0.0 | 0.0 | 0.00 | 0.64 | 0.03 | 98 | 1010.0 |
| 20260509123104 | 12 | 319 | 0.0 | 0.0 | 0.00 | 0.64 | 0.03 | 98 | 1010.0 |
| 20260509122605 | 12 | 319 | 0.0 | 0.0 | 0.00 | 0.64 | 0.03 | 98 | 1010.0 |
| 20260509122105 | 12 | 319 | 0.0 | 0.0 | 0.00 | 0.64 | 0.03 | 97 | 1009.9 |
| 20260509121604 | 12 | 319 | 0.0 | 0.0 | 0.00 | 0.64 | 0.03 | 97 | 1010.0 |
| 20260509121105 | 12 | 319 | 0.0 | 0.0 | 0.00 | 0.64 | 0.03 | 97 | 1010.0 |
| 20260509120105 | 12 | 319 | 0.0 | 0.0 | 0.00 | 0.64 | 0.03 | 96 | 1009.9 |
| 20260509115605 | 12 | 319 | 0.0 | 0.0 | 0.00 | 0.64 | 0.03 | 96 | 1009.8 |
| 20260509115105 | 12 | 319 | 0.0 | 0.0 | 0.00 | 0.64 | 0.03 | 96 | 1009.7 |
| 20260509114605 | 12 | 319 | 0.0 | 0.0 | 0.00 | 0.64 | 0.03 | 96 | 1009.7 |
| 20260509114105 | 12 | 319 | 0.0 | 0.0 | 0.00 | 0.64 | 0.03 | 96 | 1009.8 |
| 20260509113605 | 12 | 319 | 0.0 | 0.0 | 0.00 | 0.64 | 0.03 | 97 | 1009.7 |
| 20260509112605 | 12 | 319 | 0.0 | 0.0 | 0.00 | 0.64 | 0.03 | 96 | 1009.5 |
| 20260509112105 | 12 | 319 | 0.0 | 0.0 | 0.00 | 0.64 | 0.03 | 96 | 1009.4 |
| 20260509111605 | 12 | 319 | 0.0 | 1.6 | 0.00 | 0.64 | 0.03 | 95 | 1009.3 |
| 20260509110105 | 12 | 319 | 0.0 | 0.0 | 0.03 | 0.64 | 0.03 | 96 | 1009.1 |
| 20260509105104 | 12 | 319 | 0.0 | 0.0 | 0.03 | 0.64 | 0.03 | 96 | 1009.2 |
| 20260509104605 | 12 | 319 | 0.0 | 0.0 | 0.03 | 0.64 | 0.03 | 96 | 1009.3 |
| 20260509103605 | 13 | 319 | 0.0 | 0.0 | 0.03 | 0.64 | 0.03 | 96 | 1009.3 |
| 20260509103105 | 13 | 319 | 0.0 | 0.0 | 0.03 | 0.64 | 0.03 | 96 | 1009.4 |
| 20260509102605 | 13 | 319 | 0.0 | 0.0 | 0.03 | 0.64 | 0.03 | 96 | 1009.3 |
| 20260509101604 | 13 | 319 | 0.0 | 0.0 | 0.03 | 0.64 | 0.03 | 96 | 1009.4 |
| 20260509101104 | 13 | 319 | 0.0 | 0.0 | 0.03 | 0.64 | 0.03 | 96 | 1009.5 |
| 20260509100605 | 13 | 319 | 0.0 | 0.0 | 0.03 | 0.64 | 0.03 | 96 | 1009.7 |
| 20260509100105 | 13 | 319 | 0.0 | 1.6 | 0.00 | 0.61 | 0.00 | 96 | 1009.8 |
| 20260509095104 | 13 | 319 | 0.0 | 4.8 | 0.00 | 0.61 | 0.00 | 96 | 1009.8 |
| 20260509094605 | 13 | 310 | 3.2 | 4.8 | 0.00 | 0.61 | 0.00 | 96 | 1009.9 |
| 20260509094105 | 13 | 275 | 1.6 | 4.8 | 0.00 | 0.61 | 0.00 | 96 | 1010.0 |
| 20260509093604 | 13 | 302 | 0.0 | 3.2 | 0.00 | 0.61 | 0.00 | 96 | 1010.0 |
| 20260509093104 | 13 | 300 | 0.0 | 3.2 | 0.00 | 0.61 | 0.00 | 94 | 1010.0 |
| 20260509091604 | 13 | 256 | 0.0 | 0.0 | 0.00 | 0.61 | 0.00 | 96 | 1009.8 |
| 20260509091104 | 13 | 256 | 0.0 | 0.0 | 0.00 | 0.61 | 0.00 | 96 | 1009.7 |
| 20260509090605 | 13 | 256 | 0.0 | 0.0 | 0.00 | 0.61 | 0.00 | 96 | 1009.7 |
| 20260509090105 | 13 | 256 | 0.0 | 0.0 | 0.00 | 0.61 | 0.00 | 96 | 1009.8 |
| 20260509085604 | 13 | 256 | 0.0 | 3.2 | 0.00 | 0.61 | 0.00 | 96 | 1009.8 |
| 20260509085105 | 12 | 256 | 0.0 | 4.8 | 0.00 | 0.61 | 0.00 | 95 | 1010.0 |
| 20260509084605 | 12 | 256 | 1.6 | 4.8 | 0.00 | 0.61 | 0.00 | 94 | 1009.9 |
| 20260509084104 | 13 | 267 | 0.0 | 4.8 | 0.00 | 0.61 | 0.00 | 94 | 1009.8 |
| 20260509083604 | 13 | 265 | 1.6 | 3.2 | 0.00 | 0.61 | 0.00 | 94 | 1009.7 |
| 20260509082605 | 13 | 28 | 0.0 | 0.0 | 0.00 | 0.61 | 0.00 | 94 | 1009.7 |
| 20260509082105 | 13 | 28 | 0.0 | 0.0 | 0.00 | 0.61 | 0.00 | 93 | 1009.7 |
| 20260509081604 | 14 | 27 | 0.0 | 0.0 | 0.00 | 0.61 | 0.00 | 94 | 1009.7 |
| 20260509080605 | 14 | 27 | 0.0 | 3.2 | 0.00 | 0.61 | 0.00 | 95 | 1009.7 |
| 20260509080105 | 14 | 27 | 0.0 | 4.8 | 0.00 | 0.61 | 0.00 | 95 | 1009.8 |
| 20260509075604 | 14 | 27 | 3.2 | 4.8 | 0.00 | 0.61 | 0.00 | 95 | 1010.0 |
| 20260509075104 | 14 | 91 | 0.0 | 0.0 | 0.00 | 0.61 | 0.00 | 94 | 1010.0 |
| 20260509074605 | 14 | 91 | 0.0 | 0.0 | 0.00 | 0.61 | 0.00 | 94 | 1010.0 |
| 20260509073604 | 15 | 342 | 0.0 | 0.0 | 0.00 | 0.61 | 0.00 | 94 | 1010.1 |
| 20260509072605 | 15 | 342 | 0.0 | 0.0 | 0.00 | 0.61 | 0.00 | 95 | 1010.2 |
| 20260509072105 | 15 | 342 | 0.0 | 3.2 | 0.00 | 0.61 | 0.00 | 95 | 1010.2 |
| 20260509071604 | 15 | 342 | 0.0 | 4.8 | 0.00 | 0.61 | 0.00 | 95 | 1010.2 |
| 20260509071104 | 15 | 342 | 1.6 | 4.8 | 0.00 | 0.61 | 0.00 | 94 | 1010.3 |
| 20260509070105 | 15 | 261 | 0.0 | 0.0 | 0.00 | 0.61 | 0.00 | 93 | 1010.3 |
| 20260509065604 | 15 | 261 | 0.0 | 0.0 | 0.00 | 0.61 | 0.00 | 94 | 1010.4 |
| 20260509065105 | 15 | 261 | 0.0 | 0.0 | 0.00 | 0.61 | 0.00 | 94 | 1010.3 |
| 20260509064605 | 15 | 305 | 0.0 | 4.8 | 0.00 | 0.61 | 0.00 | 94 | 1010.2 |
| 20260509064104 | 15 | 305 | 0.0 | 4.8 | 0.00 | 0.61 | 0.00 | 94 | 1010.3 |
| 20260509063604 | 15 | 148 | 0.0 | 4.8 | 0.00 | 0.61 | 0.00 | 94 | 1010.2 |
| 20260509062605 | 15 | 77 | 0.0 | 4.8 | 0.00 | 0.61 | 0.00 | 93 | 1010.4 |
| 20260509062104 | 15 | 77 | 1.6 | 4.8 | 0.00 | 0.61 | 0.00 | 92 | 1010.6 |
| 20260509061105 | 15 | 77 | 0.0 | 1.6 | 0.00 | 0.61 | 0.00 | 91 | 1010.4 |
| 20260509060605 | 15 | 77 | 0.0 | 1.6 | 0.00 | 0.61 | 0.00 | 91 | 1010.5 |
| 20260509060104 | 16 | 77 | 0.0 | 0.0 | 0.00 | 0.61 | 0.00 | 92 | 1010.5 |
| 20260509055604 | 16 | 77 | 0.0 | 0.0 | 0.00 | 0.61 | 0.00 | 92 | 1010.4 |
| 20260509054605 | 16 | 77 | 0.0 | 0.0 | 0.00 | 0.61 | 0.00 | 91 | 1010.3 |
| 20260509054104 | 16 | 77 | 0.0 | 3.2 | 0.00 | 0.61 | 0.00 | 90 | 1010.4 |
| 20260509053605 | 16 | 77 | 0.0 | 3.2 | 0.00 | 0.61 | 0.00 | 89 | 1010.3 |
| 20260509053105 | 16 | 77 | 0.0 | 3.2 | 0.00 | 0.61 | 0.00 | 89 | 1010.2 |
| 20260509052605 | 17 | 77 | 0.0 | 3.2 | 0.00 | 0.61 | 0.00 | 90 | 1010.3 |
| 20260509052104 | 17 | 77 | 0.0 | 3.2 | 0.00 | 0.61 | 0.00 | 90 | 1010.3 |
| 20260509051604 | 17 | 94 | 1.6 | 4.8 | 0.00 | 0.61 | 0.00 | 90 | 1010.3 |
| 20260509050604 | 17 | 99 | 3.2 | 4.8 | 0.00 | 0.61 | 0.00 | 90 | 1010.3 |
| 20260509050104 | 17 | 69 | 3.2 | 8.0 | 0.00 | 0.61 | 0.00 | 91 | 1010.2 |
| 20260509045605 | 17 | 79 | 3.2 | 8.0 | 0.00 | 0.61 | 0.61 | 91 | 1010.3 |